Flag for U.S.A. Weather past 2 weeks in Norfolk, Virginia, U.S.A.

Now
72 °F

Passing clouds.


Feels Like: 69 °F
Forecast: 73 / 90 °F
Wind: No wind

Location: Norfolk Naval Air Station

Current Time: Jul 30, 2015 at 6:55:33 AM

Latest Report: Jul 30, 2015 at 5:59 AM


Visibility: 10 mi

Pressure: 29.96 "Hg

Humidity: 91%

Dew point: 69 °F

Location of NorfolkLocation

Historic Weather in Norfolk — Graph

°F

Norfolk temperature yesterday

Maximum temperature yesterday: 89 °F (at 2:59 PM)
Minimum temperature yesterday: 74 °F (at 5:59 AM)
Average temperature yesterday: 81 °F

Past Weeks' High & Low Weather Summary

 TemperatureHumidityPressure
High93 °F (Jul 20, 2:59 PM)94% (Jul 16, 1:59 AM)30.10 "Hg (Jul 16, 1:59 AM)
Low65 °F (Jul 26, 3:59 AM)31% (Jul 26, 3:59 PM)29.62 "Hg (Jul 15, 5:59 AM)
Average79 °F71%29.94 "Hg
* Reported Jul 15 5:59 AM — Jul 30 5:59 AM, Norfolk, Weather by CustomWeather, © 2015

Note: Actual official high and low records may vary slightly from our data, if they occured in-between our weather recording intervals... More about our weather records

Advertising

Norfolk weather history for previous 24 hours

 ConditionsComfort  
Time TempWeatherWind HumidityBarometerVisibility
5:59 AM
Thu, Jul 30
72 °FPassing clouds.No wind91%29.96 "Hg10 mi
4:59 AM73 °FPassing clouds.No wind88%29.96 "Hg10 mi
3:59 AM73 °FPassing clouds.No wind88%29.97 "Hg10 mi
2:59 AM76 °FPassing clouds.5 mph82%29.97 "Hg10 mi
1:59 AM76 °FPassing clouds.5 mph85%29.98 "Hg10 mi
12:59 AM77 °FPassing clouds.5 mph82%30.01 "Hg10 mi
11:59 PM
Wed, Jul 29
77 °FPassing clouds.5 mph82%30.01 "Hg10 mi
10:59 PM78 °FPassing clouds.5 mph79%30.01 "Hg10 mi
9:59 PM79 °FPassing clouds.7 mph77%30.01 "Hg10 mi
8:59 PM80 °FPartly sunny.9 mph71%29.99 "Hg10 mi
7:59 PM82 °FPartly sunny.10 mph65%29.97 "Hg10 mi
6:59 PM85 °FPartly sunny.9 mph61%29.96 "Hg10 mi
5:59 PM86 °FPartly sunny.8 mph59%29.98 "Hg10 mi
4:59 PM87 °FBroken clouds.6 mph57%29.99 "Hg10 mi
3:59 PM89 °FPartly sunny.3 mph53%29.99 "Hg10 mi
2:59 PM89 °FScattered clouds.8 mph55%30.00 "Hg10 mi
1:59 PM88 °FScattered clouds.10 mph61%30.02 "Hg10 mi
12:59 PM86 °FScattered clouds.8 mph65%30.03 "Hg10 mi
11:59 AM86 °FScattered clouds.No wind55%30.03 "Hg10 mi
10:59 AM86 °FScattered clouds.6 mph59%30.05 "Hg10 mi
9:59 AM83 °FPassing clouds.6 mph65%30.05 "Hg10 mi
8:59 AM81 °FPassing clouds.6 mph72%30.04 "Hg10 mi
7:59 AM79 °FPassing clouds.5 mph79%30.03 "Hg10 mi
6:59 AM76 °FPassing clouds.3 mph85%30.02 "Hg10 mi
Weather by CustomWeather, © 2015

See weather overviewHow to use our weather pages